Location: Newark
(45.2862°N, 9.8850°E)
Time: 06:30:28
(UTC+00:00)

N. Korean satellite - Pass Details

Date: 13 December 2019
Orbit: 454 x 508 km, 97.2° (Epoch: 20 January)

Event Time Altitude Azimuth Distance (km) Brightness Sun altitude
Rises 05:17:09 0° 12° (NNE) 2,540 10.2 -15.7°
Reaches altitude 10° 05:19:14 10° 12° (NNE) 1,647 9.2 -15.4°
Maximum altitude 05:22:46 88° 289° (WNW) 474 6.4 -14.8°
Drops below altitude 10° 05:26:13 10° 194° (SSW) 1,606 9.3 -14.2°
Sets 05:28:14 0° 194° (SSW) 2,469 10.2 -13.9°
